Regional Weather Roundup
Issued by NWS

Home | Current Version | Previous Version | Graphics & Text | Print | Product List | Glossary On
Versions: 1 2 3 4 5 6 7 8 9 10 11 12 13 14 15 16 17 18 19 20 21 22 23 24 25 26 27 28 29 30 31 32 33 34 35 36 37 38 39 40 41 42 43 44 45 46 47 48 49 50
000
ASUS43 KLMK 250910
RWRKY
KENTUCKY REGIONAL WEATHER ROUNDUP
NATIONAL WEATHER SERVICE LOUISVILLE KY
400 AM EST THU DEC 25 2014

NOTE "FAIR" INDICATES FEW OR NO CLOUDS BELOW 12,000 FEET
WITH NO SIGNIFICANT WEATHER AND/OR OBSTRUCTIONS TO VISIBILITY.

KYZ001>023-026-027-061>063-070>075-251000-
WESTERN AND SOUTH CENTRAL KENTUCKY

CITY           SKY/WX    TMP DP  RH WIND       PRES   REMARKS
PADUCAH        CLOUDY    39  34  82 W8        29.99R WCI  33
HENDERSON      CLOUDY    39  34  81 SW6       29.97R WCI  35
OWENSBORO      CLOUDY    39  36  89 W8        29.98R WCI  33
HOPKINSVILLE   CLOUDY    39  36  86 W8        30.00R WCI  34
BOWLING GREEN  CLOUDY    41  34  76 W7        29.99R
GLASGOW        CLOUDY    40  35  85 SW13      29.98R WCI  32
$$

KYZ024-025-028>034-038-045-046-053-251000-
NORTH CENTRAL KENTUCKY

CITY           SKY/WX    TMP DP  RH WIND       PRES   REMARKS
LOUISVILLE/SDF CLOUDY    40  35  83 W14       29.94R WCI  32
LOUISVILLE/LOU CLOUDY    40  33  76 W10       29.94R WCI  33
FORT KNOX      CLOUDY    37  34  87 SW9       29.93R WCI  31
$$

KYZ035>037-039>044-047>052-055>060-089>105-251000-
NORTHEAST KENTUCKY

CITY           SKY/WX    TMP DP  RH WIND       PRES   REMARKS
LEXINGTON      CLOUDY    38  34  85 W15G22    29.91R WCI  29
COVINGTON      CLOUDY    38  31  76 W12       29.87R WCI  30
FRANKFORT      CLOUDY    38  34  85 SW10      29.90R WCI  31
$$

KYZ054-064>069-076>088-106>120-251000-
SOUTHEAST KENTUCKY

CITY           SKY/WX    TMP DP  RH WIND       PRES   REMARKS
JACKSON        CLOUDY    39  32  76 MISG      29.90R
LONDON         CLOUDY    40  32  73 SW7       29.94R
SOMERSET       CLOUDY    37  32  81 W12       29.97R WCI  30
MIDDLESBORO    CLOUDY    40  32  74 W6        29.96R
MONTICELLO     CLOUDY    40  36  86 W6        29.99R
$$



USA.gov is the U.S. government's official web portal to all federal, state and local government web resources and services.